Showing default

COSMOS 1833, 17589

Orbit data source: Space-Track

COSMOS 1833, 17589 is a payload satellite owned by GRU (CIS) in LEO that was launched on Wed, 18 Mar 1987 UTC via a ZENIT-2 launch vehicle from the Tyuratam Missile And Space Complex (TTMTR). Payload-class satellites include a variety of spacecraft equipped with specific instruments for various scientific and technological missions. These include communications satellites like Starlink; space stations such as the ISS; scientific satellites like the Hubble; Earth observation satellites from companies like Planet Labs, Umbra, and HawkEye 360; GPS; miniature CubeSats for education and research; and military/defense satellites.

Loading next visibility...
Identifier
17589, 1987-027A
Orbit
LEO
Country
Flag of CISCIS
Related business
Manufacturer
Yuzhnoe
Mission
Defense Sigint
Bus & Motor
TSELINA-2, Unknown motor
Mass
3,250 kg wet, 3,250 kg dry
Launch date (UTC)
1987-03-18 (39 years ago)
Launch vehicle
ZENIT-2
Launch site
Tyuratam Missile And Space Complex (TTMTR)
Object type
Payload
Rocket body
Debris
Shape & HBR
Cyl + 2 Pan + 1 Ant, 11.3 m
Radar Cross Section
16.265 m², Large (>1 m²)

Expand to show TLE details & history
Last TLE update: 10 hours ago

TLE from 10 hours ago
0 COSMOS 1833
1 17589U 87027A   25258.58321525 -.00000126  00000-0 -41502-4 0  9994
2 17589  70.9234 334.0819 0019579 106.2029 254.1248 14.13043697985574
Epoch: 2025-09-15T13:59Z
TLE epoch observation values (Epoch: 2025-09-15T13:59:49.797Z)
Latitude
-0.00007°
Longitude
129.3386°
Altitude
855.265 km
Speed
7.423 km/s
True Right ascension
22h 16m 19s
True Declination
0° 00' 00"
Sunlit
Object was in full shadow at epoch
Visualization orbit readout
Latitude
Unknown
Longitude
Unknown
Altitude
Unknown
Speed
Unknown
Apparent Right ascension
Unknown
Apparent Declination
Unknown
Sunlit
N/A
Visualization observer readout
Local Sidereal Time
16:12:06
Azimuth
Unknown
Elevation
Unknown
Doppler factor
Unknown
Orbital elements
Apogee altitude
861.055 km
Perigee altitude
832.763 km
Semi-major axis
7,225.046 km
Eccentricity
0.00196
Inclination
70.9234°
RAAN
334.0819°
Arg. of periapsis
106.2029°
True anomaly
253.90914°
Mean anomaly
254.1248°
Eccentric anomaly
254.01696°
Mean motion
3.53413 °/min
Orbital period
101.86 mins
BSTAR
-0.000041502
Loading maneuver chart data...
Computing Atmospheric mass density...
Loading historical data...
Loading historical data...
Loading historical data...
Loading historical data...
Loading historical data...
Loading historical data...
Loading historical data...

Documentation

Showing up to 5 results
|